DECAYED
Showing default

ARCTICSAT-1, 61762 (Decayed)

Orbit data source: Space-Track

ARCTICSAT-1, 61762 was a Commonwealth of Independent States-origin payload satellite in LEO that was launched on Mon, 04 Nov 2024 UTC via a SOYUZ-2-1B launch vehicle from the Vostochny Cosmodrome (VOSTO). Payload-class satellites include a variety of spacecraft equipped with specific instruments for various scientific and technological missions. These include communications satellites like Starlink; space stations such as the ISS; scientific satellites like the Hubble; Earth observation satellites from companies like Planet Labs, Umbra, and HawkEye 360; GPS; miniature CubeSats for education and research; and military/defense satellites.

Not visible in the next 10 days
Identifier
61762, 2024-199AD
Orbit
Decayed
Country
Flag of CISCIS
Related business
Manufacturer
Sputniks
Mission
Decayed Amateur Sci/Com
Bus & Motor
CUBESAT 3U, Unknown motor
Mass
3 kg wet, 3 kg dry
Launch date (UTC)
2024-11-04 (2 years ago)
Launch vehicle
SOYUZ-2-1B
Launch site
Vostochny Cosmodrome (VOSTO)
Object type
Payload
Rocket body
Debris
Shape & HBR
Box, 0.2 m
Radar Cross Section
0.035 m², Medium (>0.1 m² and < 1m²)

Expand to show TLE details & history
Last TLE update: 3 months ago

TLE from 3 months ago
0 ARCTICSAT-1
1 61762U 24199AD  26165.34303744  .14484756  25559-5  25151-3 0  9992
2 61762  97.2729  49.6147 0010303 244.1546 115.8695 16.47295417137679
Epoch: 2026-06-14T08:13Z
TLE epoch observation values (Epoch: 2026-06-14T08:13:58.434Z)
Latitude
-0.0001°
Longitude
23.4761°
Altitude
152.672 km
Speed
7.813 km/s
True Right ascension
03h 18m 27s
True Declination
0° 00' 00"
Sunlit
Object was in daylight at epoch
Visualization orbit readout
Latitude
Unknown
Longitude
Unknown
Altitude
Unknown
Speed
Unknown
Apparent Right ascension
Unknown
Apparent Declination
Unknown
Sunlit
N/A
Visualization observer readout
Local Sidereal Time
15:32:13
Azimuth
Unknown
Elevation
Unknown
Doppler factor
Unknown
Orbital elements
Apogee altitude
149.979 km
Perigee altitude
136.541 km
Semi-major axis
6,521.397 km
Eccentricity
0.00103
Inclination
97.2729°
RAAN
49.6147°
Arg. of periapsis
244.1546°
True anomaly
115.97567°
Mean anomaly
115.8695°
Eccentric anomaly
115.92259°
Mean motion
4.12128 °/min
Orbital period
87.35 mins
BSTAR
0.00025151
Loading maneuver chart data...
Computing Atmospheric mass density...
Loading historical data...
Loading historical data...
Loading historical data...
Loading historical data...
Loading historical data...
Loading historical data...
Loading historical data...

Documentation

Showing up to 5 results
|